PRAETORIAN SDA_613

Last updated on Sun Jun 21 2026 00:03:46 GMT+0000 (Coordinated Universal Time)

1 65576U 25203M 26170.95751025 .00000045 00000+0 30652-4 0 9999 2 65576 81.2998 8.3673 0005719 176.1966 183.9234 13.82765296 39060
UTC large
Height (km)
Speed (km/s)
/
Latitude / Longitude
Inclination (degrees)
Orbital Period (minutes)
Azimuth
Elevation
Range (km)
Doppler Factor

Next 0 passes for location: London (51.5072 / 0.1276)

No passes found over London.
PRAETORIAN SDA_613